owner,sensor,date,latitude,longitude,vertical_datum,wind_speed,wind_to_direction,wind_speed_of_gust,qcFlag 
TABS,ioos:station:wmo:42043:1,2015-04-01T00:00:00Z,28.9818,-94.9186,4.0,2.625890325,152.0689744,2.94,'11111222,11111222,11111222' 
TABS,ioos:station:wmo:42043:1,2015-04-01T00:30:00Z,28.9818,-94.9186,4.0,3.101548001,157.2382964,3.68,'11111222,11111222,11111222' 
TABS,ioos:station:wmo:42043:1,2015-04-01T01:00:00Z,28.9818,-94.9186,4.0,3.154124284,155.060194,3.92,'11111222,11111222,11111222' 
TABS,ioos:station:wmo:42043:1,2015-04-01T01:30:00Z,28.9818,-94.9186,4.0,3.387226004,162.4746831,4.27,'11111222,11111222,11111222' 
TABS,ioos:station:wmo:42043:1,2015-04-01T02:00:00Z,28.9818,-94.9186,4.0,3.848376281,167.6975129,4.6,'11111222,11111222,11111222' 
TABS,ioos:station:wmo:42043:1,2015-04-01T02:30:00Z,28.9818,-94.9186,4.0,3.873822402,161.7991632,4.88,'11111222,11111222,11111222' 
TABS,ioos:station:wmo:42043:1,2015-04-01T03:00:00Z,28.9818,-94.9186,4.0,4.388826722,164.5390289,5.36,'11111222,11111222,11111222' 
TABS,ioos:station:wmo:42043:1,2015-04-01T03:30:00Z,28.9818,-94.9186,4.0,4.412493626,167.0348218,5.55,'11111222,11111222,11111222' 
TABS,ioos:station:wmo:42043:1,2015-04-01T04:00:00Z,28.9818,-94.9186,4.0,4.551977592,184.1575605,5.39,'11111222,11111222,11111222' 
TABS,ioos:station:wmo:42043:1,2015-04-01T04:30:00Z,28.9818,-94.9186,4.0,4.623905276,182.3551978,5.41,'11111222,11111222,11111222' 
TABS,ioos:station:wmo:42043:1,2015-04-01T05:00:00Z,28.9818,-94.9186,4.0,3.661488768,168.6596158,4.4,'11111222,11111222,11111222' 
TABS,ioos:station:wmo:42043:1,2015-04-01T05:30:00Z,28.9818,-94.9186,4.0,3.684019544,163.9266739,4.45,'11111222,11111222,11111222' 
TABS,ioos:station:wmo:42043:1,2015-04-01T06:00:00Z,28.9818,-94.9186,4.0,3.592005011,163.8357491,4.44,'11111222,11111222,11111222' 
TABS,ioos:station:wmo:42043:1,2015-04-01T06:30:00Z,28.9818,-94.9186,4.0,4.170203832,174.3579862,4.98,'11111222,11111222,11111222' 
TABS,ioos:station:wmo:42043:1,2015-04-01T07:00:00Z,28.9818,-94.9186,4.0,3.942435795,173.8847212,4.88,'11111222,11111222,11111222' 
TABS,ioos:station:wmo:42043:1,2015-04-01T07:30:00Z,28.9818,-94.9186,4.0,2.87675164,173.8139946,3.67,'11111222,11111222,11111222' 
TABS,ioos:station:wmo:42043:1,2015-04-01T08:00:00Z,28.9818,-94.9186,4.0,3.097127702,183.8881109,3.83,'11111222,11111222,11111222' 
TABS,ioos:station:wmo:42043:1,2015-04-01T08:30:00Z,28.9818,-94.9186,4.0,3.42,180.0002105,4.19,'11111222,11111222,11111222' 
TABS,ioos:station:wmo:42043:1,2015-04-01T09:00:00Z,28.9818,-94.9186,4.0,2.584356787,176.672814,3.31,'11111222,11111222,11111222' 
TABS,ioos:station:wmo:42043:1,2015-04-01T09:30:00Z,28.9818,-94.9186,4.0,2.490642487,174.7016578,3.08,'11111222,11111222,11111222' 
TABS,ioos:station:wmo:42043:1,2015-04-01T10:00:00Z,28.9818,-94.9186,4.0,1.918801709,167.0503863,2.49,'11111222,11111222,11111222' 
TABS,ioos:station:wmo:42043:1,2015-04-01T10:30:00Z,28.9818,-94.9186,4.0,2.085976989,166.6968111,2.65,'11111222,11111222,11111222' 
TABS,ioos:station:wmo:42043:1,2015-04-01T11:00:00Z,28.9818,-94.9186,4.0,2.687005769,171.8701271,3.36,'11111222,11111222,11111222' 
TABS,ioos:station:wmo:42043:1,2015-04-01T11:30:00Z,28.9818,-94.9186,4.0,2.34957443,161.6424186,2.98,'11111222,11111222,11111222' 
TABS,ioos:station:wmo:42043:1,2015-04-01T12:00:00Z,28.9818,-94.9186,4.0,2.464832652,154.7867735,3.17,'11111222,11111222,11111222' 
TABS,ioos:station:wmo:42043:1,2015-04-01T12:30:00Z,28.9818,-94.9186,4.0,2.647564919,153.0480946,3.28,'11111222,11111222,11111222' 
TABS,ioos:station:wmo:42043:1,2015-04-01T13:00:00Z,28.9818,-94.9186,4.0,2.654976459,141.5764145,3.2,'11111222,11111222,11111222' 
TABS,ioos:station:wmo:42043:1,2015-04-01T13:30:00Z,28.9818,-94.9186,4.0,2.841918366,138.8523132,3.7,'11111222,11111222,11111222' 
TABS,ioos:station:wmo:42043:1,2015-04-01T14:00:00Z,28.9818,-94.9186,4.0,2.420764342,114.6597883,2.97,'11111222,11111222,11111222' 
TABS,ioos:station:wmo:42043:1,2015-04-01T14:30:00Z,28.9818,-94.9186,4.0,2.205130382,115.519561,2.63,'11111222,11111222,11111222' 
TABS,ioos:station:wmo:42043:1,2015-04-01T15:00:00Z,28.9818,-94.9186,4.0,2.4060133,116.6719073,3.06,'11111222,11111222,11111222' 
TABS,ioos:station:wmo:42043:1,2015-04-01T15:30:00Z,28.9818,-94.9186,4.0,2.399416596,140.0724367,3.03,'11111222,11111222,11111222' 
TABS,ioos:station:wmo:42043:1,2015-04-01T16:00:00Z,28.9818,-94.9186,4.0,2.873464808,155.7543385,4.26,'11111222,11111222,11111222' 
TABS,ioos:station:wmo:42043:1,2015-04-01T16:30:00Z,28.9818,-94.9186,4.0,2.6759858,151.4239934,3.65,'11111222,11111222,11111222' 
TABS,ioos:station:wmo:42043:1,2015-04-01T17:00:00Z,28.9818,-94.9186,4.0,3.054832238,171.339627,4.07,'11111222,11111222,11111222' 
TABS,ioos:station:wmo:42043:1,2015-04-01T17:30:00Z,28.9818,-94.9186,4.0,2.7038676,157.6086018,3.66,'11111222,11111222,11111222' 
TABS,ioos:station:wmo:42043:1,2015-04-01T18:00:00Z,28.9818,-94.9186,4.0,2.570311265,144.0220881,3.15,'11111222,11111222,11111222' 
TABS,ioos:station:wmo:42043:1,2015-04-01T18:30:00Z,28.9818,-94.9186,4.0,3.309335281,141.5027262,4.17,'11111222,11111222,11111222' 
TABS,ioos:station:wmo:42043:1,2015-04-01T19:00:00Z,28.9818,-94.9186,4.0,4.31834459,146.2366243,5.58,'11111222,11111222,11111222' 
TABS,ioos:station:wmo:42043:1,2015-04-01T19:30:00Z,28.9818,-94.9186,4.0,4.3,143.130399,5.45,'11111222,11111222,11111222' 
TABS,ioos:station:wmo:42043:1,2015-04-01T20:00:00Z,28.9818,-94.9186,4.0,4.093531483,140.7502875,5.18,'11111222,11111222,11111222' 
TABS,ioos:station:wmo:42043:1,2015-04-01T20:30:00Z,28.9818,-94.9186,4.0,3.571736272,133.7524891,4.43,'11111222,11111222,11111222' 
TABS,ioos:station:wmo:42043:1,2015-04-01T21:00:00Z,28.9818,-94.9186,4.0,4.455973519,160.8740494,5.94,'11111222,11111222,11111222' 
TABS,ioos:station:wmo:42043:1,2015-04-01T21:30:00Z,28.9818,-94.9186,4.0,5.319492457,144.4876576,7.38,'11111222,11111222,11111222' 
TABS,ioos:station:wmo:42043:1,2015-04-01T22:00:00Z,28.9818,-94.9186,4.0,5.07141992,153.283646,6.85,'11111222,11111222,11111222' 
TABS,ioos:station:wmo:42043:1,2015-04-01T22:30:00Z,28.9818,-94.9186,4.0,4.483859944,150.1761517,6.5,'11111222,11111222,11111222' 
TABS,ioos:station:wmo:42043:1,2015-04-01T23:00:00Z,28.9818,-94.9186,4.0,6.045246066,159.166889,7.57,'11111222,11111222,11111222' 
TABS,ioos:station:wmo:42043:1,2015-04-01T23:30:00Z,28.9818,-94.9186,4.0,4.127977713,153.9938828,5.1,'11111222,11111222,11111222' 
TABS,ioos:station:wmo:42043:1,2015-04-02T00:00:00Z,28.9818,-94.9186,4.0,3.007074991,132.9789555,3.73,'11111222,11111222,11111222' 
TABS,ioos:station:wmo:42043:1,2015-04-02T00:30:00Z,28.9818,-94.9186,4.0,3.13081459,138.3667685,3.82,'11111222,11111222,11111222' 
TABS,ioos:station:wmo:42043:1,2015-04-02T01:00:00Z,28.9818,-94.9186,4.0,3.13287408,134.0950422,3.89,'11111222,11111222,11111222' 
TABS,ioos:station:wmo:42043:1,2015-04-02T01:30:00Z,28.9818,-94.9186,4.0,3.183111685,136.5278376,4.01,'11111222,11111222,11111222' 
TABS,ioos:station:wmo:42043:1,2015-04-02T02:00:00Z,28.9818,-94.9186,4.0,3.252691193,135.0003157,3.99,'11111222,11111222,11111222' 
TABS,ioos:station:wmo:42043:1,2015-04-02T02:30:00Z,28.9818,-94.9186,4.0,3.081379561,123.4841256,3.67,'11111222,11111222,11111222' 
TABS,ioos:station:wmo:42043:1,2015-04-02T03:00:00Z,28.9818,-94.9186,4.0,2.944910865,130.1795609,3.61,'11111222,11111222,11111222' 
TABS,ioos:station:wmo:42043:1,2015-04-02T03:30:00Z,28.9818,-94.9186,4.0,3.133831521,136.6811954,3.79,'11111222,11111222,11111222' 
TABS,ioos:station:wmo:42043:1,2015-04-02T04:00:00Z,28.9818,-94.9186,4.0,3.566020191,143.3232047,4.55,'11111222,11111222,11111222' 
TABS,ioos:station:wmo:42043:1,2015-04-02T04:30:00Z,28.9818,-94.9186,4.0,4.029950372,150.5728229,5.41,'11111222,11111222,11111222' 
TABS,ioos:station:wmo:42043:1,2015-04-02T05:00:00Z,28.9818,-94.9186,4.0,4.159146547,153.7432595,5.41,'11111222,11111222,11111222' 
TABS,ioos:station:wmo:42043:1,2015-04-02T05:30:00Z,28.9818,-94.9186,4.0,4.964242138,150.9568846,6.35,'11111222,11111222,11111222' 
TABS,ioos:station:wmo:42043:1,2015-04-02T06:00:00Z,28.9818,-94.9186,4.0,5.420590374,152.7734199,7.02,'11111222,11111222,11111222' 
TABS,ioos:station:wmo:42043:1,2015-04-02T06:30:00Z,28.9818,-94.9186,4.0,6.035229904,160.2442557,7.44,'11111222,11111222,11111222' 
TABS,ioos:station:wmo:42043:1,2015-04-02T07:00:00Z,28.9818,-94.9186,4.0,5.993079342,165.8016896,7.41,'11111222,11111222,11111222' 
TABS,ioos:station:wmo:42043:1,2015-04-02T07:30:00Z,28.9818,-94.9186,4.0,5.225935323,163.0909782,6.58,'11111222,11111222,11111222' 
TABS,ioos:station:wmo:42043:1,2015-04-02T08:00:00Z,28.9818,-94.9186,4.0,5.374923255,164.1280637,6.95,'11111222,11111222,11111222' 
TABS,ioos:station:wmo:42043:1,2015-04-02T08:30:00Z,28.9818,-94.9186,4.0,5.606353539,159.7552096,6.9,'11111222,11111222,11111222' 
TABS,ioos:station:wmo:42043:1,2015-04-02T09:00:00Z,28.9818,-94.9186,4.0,5.094801272,159.431051,6.38,'11111222,11111222,11111222' 
TABS,ioos:station:wmo:42043:1,2015-04-02T09:30:00Z,28.9818,-94.9186,4.0,4.625851273,158.7048622,5.94,'11111222,11111222,11111222' 
TABS,ioos:station:wmo:42043:1,2015-04-02T10:00:00Z,28.9818,-94.9186,4.0,4.42142511,148.5031455,5.51,'11111222,11111222,11111222' 
TABS,ioos:station:wmo:42043:1,2015-04-02T10:30:00Z,28.9818,-94.9186,4.0,4.624727019,142.1144495,6.0,'11111222,11111222,11111222' 
TABS,ioos:station:wmo:42043:1,2015-04-02T11:00:00Z,28.9818,-94.9186,4.0,5.203844733,145.332992,6.93,'11111222,11111222,11111222' 
TABS,ioos:station:wmo:42043:1,2015-04-02T11:30:00Z,28.9818,-94.9186,4.0,4.359908256,155.9043459,5.28,'11111222,11111222,11111222' 
TABS,ioos:station:wmo:42043:1,2015-04-02T12:00:00Z,28.9818,-94.9186,4.0,5.504407325,155.5304691,7.46,'11111222,11111222,11111222' 
TABS,ioos:station:wmo:42043:1,2015-04-02T12:30:00Z,28.9818,-94.9186,4.0,3.861735361,170.6110849,5.15,'11111222,11111222,11111222' 
TABS,ioos:station:wmo:42043:1,2015-04-02T13:00:00Z,28.9818,-94.9186,4.0,3.832623123,171.4472887,5.52,'11111222,11111222,11111222' 
TABS,ioos:station:wmo:42043:1,2015-04-02T13:30:00Z,28.9818,-94.9186,4.0,5.056026108,168.2458165,6.8,'11111222,11111222,11111222' 
TABS,ioos:station:wmo:42043:1,2015-04-02T14:00:00Z,28.9818,-94.9186,4.0,5.151019317,169.8247234,6.48,'11111222,11111222,11111222' 
TABS,ioos:station:wmo:42043:1,2015-04-02T14:30:00Z,28.9818,-94.9186,4.0,3.726070316,173.2185228,4.74,'11111222,11111222,11111222' 
TABS,ioos:station:wmo:42043:1,2015-04-02T15:00:00Z,28.9818,-94.9186,4.0,3.638241333,165.3528694,4.76,'11111222,11111222,11111222' 
TABS,ioos:station:wmo:42043:1,2015-04-02T15:30:00Z,28.9818,-94.9186,4.0,4.262405424,163.6486375,5.22,'11111222,11111222,11111222' 
TABS,ioos:station:wmo:42043:1,2015-04-02T16:00:00Z,28.9818,-94.9186,4.0,3.766616519,165.7057469,4.96,'11111222,11111222,11111222' 
TABS,ioos:station:wmo:42043:1,2015-04-02T16:30:00Z,28.9818,-94.9186,4.0,3.641236054,167.1471527,4.41,'11111222,11111222,11111222' 
TABS,ioos:station:wmo:42043:1,2015-04-02T17:00:00Z,28.9818,-94.9186,4.0,3.623989514,166.9226728,4.8,'11111222,11111222,11111222' 
TABS,ioos:station:wmo:42043:1,2015-04-02T17:30:00Z,28.9818,-94.9186,4.0,3.803800731,164.7583383,4.91,'11111222,11111222,11111222' 
TABS,ioos:station:wmo:42043:1,2015-04-02T18:00:00Z,28.9818,-94.9186,4.0,4.200309512,162.6869135,5.13,'11111222,11111222,11111222' 
TABS,ioos:station:wmo:42043:1,2015-04-02T18:30:00Z,28.9818,-94.9186,4.0,4.247210849,163.8695496,5.61,'11111222,11111222,11111222' 
TABS,ioos:station:wmo:42043:1,2015-04-02T19:00:00Z,28.9818,-94.9186,4.0,3.706966415,162.7384305,4.65,'11111222,11111222,11111222' 
TABS,ioos:station:wmo:42043:1,2015-04-02T19:30:00Z,28.9818,-94.9186,4.0,3.491503974,167.5960263,4.5,'11111222,11111222,11111222' 
TABS,ioos:station:wmo:42043:1,2015-04-02T20:00:00Z,28.9818,-94.9186,4.0,3.192256255,166.9652655,3.87,'11111222,11111222,11111222' 
TABS,ioos:station:wmo:42043:1,2015-04-02T20:30:00Z,28.9818,-94.9186,4.0,3.358943286,172.4732169,4.1,'11111222,11111222,11111222' 
TABS,ioos:station:wmo:42043:1,2015-04-02T21:00:00Z,28.9818,-94.9186,4.0,2.709335712,170.2250125,3.46,'11111222,11111222,11111222' 
TABS,ioos:station:wmo:42043:1,2015-04-02T21:30:00Z,28.9818,-94.9186,4.0,3.022002647,159.4664037,3.73,'11111222,11111222,11111222' 
TABS,ioos:station:wmo:42043:1,2015-04-02T22:00:00Z,28.9818,-94.9186,4.0,2.877116612,151.5646444,3.94,'11111222,11111222,11111222' 
TABS,ioos:station:wmo:42043:1,2015-04-02T22:30:00Z,28.9818,-94.9186,4.0,3.047917322,151.164777,4.67,'11111222,11111222,11111222' 
TABS,ioos:station:wmo:42043:1,2015-04-02T23:00:00Z,28.9818,-94.9186,4.0,3.665474048,148.0446091,4.46,'11111222,11111222,11111222' 
TABS,ioos:station:wmo:42043:1,2015-04-02T23:30:00Z,28.9818,-94.9186,4.0,3.397793402,147.011766,4.33,'11111222,11111222,11111222' 
TABS,ioos:station:wmo:42043:1,2015-04-03T00:00:00Z,28.9818,-94.9186,4.0,3.161803283,153.5162619,4.27,'11111222,11111222,11111222' 
TABS,ioos:station:wmo:42043:1,2015-04-03T00:30:00Z,28.9818,-94.9186,4.0,3.225600719,146.5072825,4.19,'11111222,11111222,11111222' 
TABS,ioos:station:wmo:42043:1,2015-04-03T01:00:00Z,28.9818,-94.9186,4.0,3.50714984,149.1205786,4.41,'11111222,11111222,11111222' 
TABS,ioos:station:wmo:42043:1,2015-04-03T01:30:00Z,28.9818,-94.9186,4.0,3.658155273,149.4394427,4.7,'11111222,11111222,11111222' 
TABS,ioos:station:wmo:42043:1,2015-04-03T02:00:00Z,28.9818,-94.9186,4.0,4.398772556,146.3102217,5.53,'11111222,11111222,11111222' 
TABS,ioos:station:wmo:42043:1,2015-04-03T02:30:00Z,28.9818,-94.9186,4.0,4.641820763,144.7352451,5.79,'11111222,11111222,11111222' 
TABS,ioos:station:wmo:42043:1,2015-04-03T03:00:00Z,28.9818,-94.9186,4.0,4.735704805,149.9702734,5.73,'11111222,11111222,11111222' 
TABS,ioos:station:wmo:42043:1,2015-04-03T03:30:00Z,28.9818,-94.9186,4.0,4.980461826,149.470576,6.12,'11111222,11111222,11111222' 
TABS,ioos:station:wmo:42043:1,2015-04-03T04:00:00Z,28.9818,-94.9186,4.0,5.490373393,155.3490337,6.86,'11111222,11111222,11111222' 
TABS,ioos:station:wmo:42043:1,2015-04-03T04:30:00Z,28.9818,-94.9186,4.0,5.521095906,155.1526476,7.15,'11111222,11111222,11111222' 
TABS,ioos:station:wmo:42043:1,2015-04-03T05:00:00Z,28.9818,-94.9186,4.0,5.867069115,162.6462264,7.44,'11111222,11111222,11111222' 
TABS,ioos:station:wmo:42043:1,2015-04-03T05:30:00Z,28.9818,-94.9186,4.0,5.806418862,163.5940026,7.28,'11111222,11111222,11111222' 
TABS,ioos:station:wmo:42043:1,2015-04-03T06:00:00Z,28.9818,-94.9186,4.0,6.030489201,163.4284096,7.62,'11111222,11111222,11111222' 
TABS,ioos:station:wmo:42043:1,2015-04-03T06:30:00Z,28.9818,-94.9186,4.0,5.28050187,163.3841478,7.03,'11111222,11111222,11111222' 
TABS,ioos:station:wmo:42043:1,2015-04-03T07:00:00Z,28.9818,-94.9186,4.0,6.02461617,165.7794734,8.03,'11111222,11111222,11111222' 
TABS,ioos:station:wmo:42043:1,2015-04-03T07:30:00Z,28.9818,-94.9186,4.0,5.422195127,173.7533869,7.07,'11111222,11111222,11111222' 
TABS,ioos:station:wmo:42043:1,2015-04-03T08:00:00Z,28.9818,-94.9186,4.0,5.046701893,177.0471005,6.1,'11111222,11111222,11111222' 
TABS,ioos:station:wmo:42043:1,2015-04-03T08:30:00Z,28.9818,-94.9186,4.0,4.331108403,184.104668,5.21,'11111222,11111222,11111222' 
TABS,ioos:station:wmo:42043:1,2015-04-03T09:00:00Z,28.9818,-94.9186,4.0,3.84629692,183.279189,4.97,'11111222,11111222,11111222' 
TABS,ioos:station:wmo:42043:1,2015-04-03T09:30:00Z,28.9818,-94.9186,4.0,3.352760057,186.6800809,4.09,'11111222,11111222,11111222' 
TABS,ioos:station:wmo:42043:1,2015-04-03T10:00:00Z,28.9818,-94.9186,4.0,2.99549662,187.4810791,3.84,'11111222,11111222,11111222' 
TABS,ioos:station:wmo:42043:1,2015-04-03T10:30:00Z,28.9818,-94.9186,4.0,3.798907738,176.0757871,4.75,'11111222,11111222,11111222' 
TABS,ioos:station:wmo:42043:1,2015-04-03T11:00:00Z,28.9818,-94.9186,4.0,3.813449882,164.7978373,5.19,'11111222,11111222,11111222' 
TABS,ioos:station:wmo:42043:1,2015-04-03T11:30:00Z,28.9818,-94.9186,4.0,4.239587244,153.374783,5.38,'11111222,11111222,11111222' 
TABS,ioos:station:wmo:42043:1,2015-04-03T12:00:00Z,28.9818,-94.9186,4.0,4.452504913,161.4025335,5.74,'11111222,11111222,11111222' 
TABS,ioos:station:wmo:42043:1,2015-04-03T12:30:00Z,28.9818,-94.9186,4.0,5.408012574,164.44778,6.61,'11111222,11111222,11111222' 
TABS,ioos:station:wmo:42043:1,2015-04-03T13:00:00Z,28.9818,-94.9186,4.0,5.559469399,159.5768977,7.15,'11111222,11111222,11111222' 
TABS,ioos:station:wmo:42043:1,2015-04-03T13:30:00Z,28.9818,-94.9186,4.0,4.844842619,157.9353246,6.17,'11111222,11111222,11111222' 
TABS,ioos:station:wmo:42043:1,2015-04-03T14:00:00Z,28.9818,-94.9186,4.0,5.071666393,155.9116011,6.25,'11111222,11111222,11111222' 
TABS,ioos:station:wmo:42043:1,2015-04-03T14:30:00Z,28.9818,-94.9186,4.0,4.304753187,168.6119961,5.32,'11111222,11111222,11111222' 
TABS,ioos:station:wmo:42043:1,2015-04-03T15:00:00Z,28.9818,-94.9186,4.0,3.546857764,171.7330565,4.36,'11111222,11111222,11111222' 
TABS,ioos:station:wmo:42043:1,2015-04-03T15:30:00Z,28.9818,-94.9186,4.0,3.15762569,168.1209255,4.11,'11111222,11111222,11111222' 
TABS,ioos:station:wmo:42043:1,2015-04-03T16:00:00Z,28.9818,-94.9186,4.0,3.327416415,174.1354263,4.33,'11111222,11111222,11111222' 
TABS,ioos:station:wmo:42043:1,2015-04-03T16:30:00Z,28.9818,-94.9186,4.0,4.276037886,165.5090241,5.42,'11111222,11111222,11111222' 
TABS,ioos:station:wmo:42043:1,2015-04-03T17:00:00Z,28.9818,-94.9186,4.0,4.244490547,172.6910349,5.7,'11111222,11111222,11111222' 
TABS,ioos:station:wmo:42043:1,2015-04-03T17:30:00Z,28.9818,-94.9186,4.0,3.022995203,174.6856772,3.91,'11111222,11111222,11111222' 
TABS,ioos:station:wmo:42043:1,2015-04-03T18:00:00Z,28.9818,-94.9186,4.0,2.323101375,177.0392812,3.05,'11111222,11111222,11111222' 
TABS,ioos:station:wmo:42043:1,2015-04-03T18:30:00Z,28.9818,-94.9186,4.0,1.943707797,176.4606596,2.66,'11111222,11111222,11111222' 
TABS,ioos:station:wmo:42043:1,2015-04-03T19:00:00Z,28.9818,-94.9186,4.0,1.765049574,191.4374399,2.43,'11111222,11111222,11111222' 
TABS,ioos:station:wmo:42043:1,2015-04-03T19:30:00Z,28.9818,-94.9186,4.0,1.76638048,187.8091847,2.54,'11111222,11111222,11111222' 
TABS,ioos:station:wmo:42043:1,2015-04-03T20:00:00Z,28.9818,-94.9186,4.0,2.083458663,183.3020684,3.03,'11111222,11111222,11111222' 
TABS,ioos:station:wmo:42043:1,2015-04-03T20:30:00Z,28.9818,-94.9186,4.0,1.620030864,173.6209772,2.35,'11111222,11111222,11111222' 
TABS,ioos:station:wmo:42043:1,2015-04-03T21:00:00Z,28.9818,-94.9186,4.0,1.23794184,189.766867,2.15,'11111222,11111222,11111222' 
TABS,ioos:station:wmo:42043:1,2015-04-03T21:30:00Z,28.9818,-94.9186,4.0,0.648459713,340.1677061,1.38,'11111222,11111222,11111222' 
TABS,ioos:station:wmo:42043:1,2015-04-03T22:00:00Z,28.9818,-94.9186,4.0,0.625859409,12.92575844,1.17,'11111222,11111222,11111222' 
TABS,ioos:station:wmo:42043:1,2015-04-03T22:30:00Z,28.9818,-94.9186,4.0,1.218400591,106.2041572,1.81,'11111222,11111222,11111222' 
TABS,ioos:station:wmo:42043:1,2015-04-03T23:00:00Z,28.9818,-94.9186,4.0,3.622402518,143.9845502,4.84,'11111222,11111222,11111222' 
TABS,ioos:station:wmo:42043:1,2015-04-03T23:30:00Z,28.9818,-94.9186,4.0,3.303407332,140.5278429,4.25,'11111222,11111222,11111222' 
TABS,ioos:station:wmo:42043:1,2015-04-04T00:00:00Z,28.9818,-94.9186,4.0,3.533751548,150.3157311,4.9,'11111222,11111222,11111222' 
TABS,ioos:station:wmo:42043:1,2015-04-04T00:30:00Z,28.9818,-94.9186,4.0,3.193258524,153.9969254,4.26,'11111222,11111222,11111222' 
TABS,ioos:station:wmo:42043:1,2015-04-04T01:00:00Z,28.9818,-94.9186,4.0,3.544643847,136.9437337,4.78,'11111222,11111222,11111222' 
TABS,ioos:station:wmo:42043:1,2015-04-04T01:30:00Z,28.9818,-94.9186,4.0,3.300484813,123.8829993,4.21,'11111222,11111222,11111222' 
TABS,ioos:station:wmo:42043:1,2015-04-04T02:00:00Z,28.9818,-94.9186,4.0,3.469538874,121.4455697,4.58,'11111222,11111222,11111222' 
TABS,ioos:station:wmo:42043:1,2015-04-04T02:30:00Z,28.9818,-94.9186,4.0,4.270421525,127.6752704,5.32,'11111222,11111222,11111222' 
TABS,ioos:station:wmo:42043:1,2015-04-04T03:00:00Z,28.9818,-94.9186,4.0,4.163195888,132.079601,4.98,'11111222,11111222,11111222' 
TABS,ioos:station:wmo:42043:1,2015-04-04T03:30:00Z,28.9818,-94.9186,4.0,3.861605884,140.042755,4.67,'11111222,11111222,11111222' 
TABS,ioos:station:wmo:42043:1,2015-04-04T04:00:00Z,28.9818,-94.9186,4.0,3.980163313,145.7512575,5.03,'11111222,11111222,11111222' 
TABS,ioos:station:wmo:42043:1,2015-04-04T04:30:00Z,28.9818,-94.9186,4.0,3.771962354,146.3523509,4.58,'11111222,11111222,11111222' 
TABS,ioos:station:wmo:42043:1,2015-04-04T05:00:00Z,28.9818,-94.9186,4.0,3.752505829,154.2546503,4.72,'11111222,11111222,11111222' 
TABS,ioos:station:wmo:42043:1,2015-04-04T05:30:00Z,28.9818,-94.9186,4.0,1.650272705,152.9694134,2.29,'11111222,11111222,11111222' 
TABS,ioos:station:wmo:42043:1,2015-04-04T06:00:00Z,28.9818,-94.9186,4.0,1.006031809,186.2774943,1.62,'11111222,11111222,11111222' 
TABS,ioos:station:wmo:42043:1,2015-04-04T06:30:00Z,28.9818,-94.9186,4.0,1.02342562,303.8452611,1.62,'11111222,11111222,11111222' 
TABS,ioos:station:wmo:42043:1,2015-04-04T07:00:00Z,28.9818,-94.9186,4.0,0.619112268,301.1223974,1.15,'11111222,11111222,11111222' 
TABS,ioos:station:wmo:42043:1,2015-04-04T07:30:00Z,28.9818,-94.9186,4.0,2.39415956,329.3644436,3.39,'11111222,11111222,11111222' 
TABS,ioos:station:wmo:42043:1,2015-04-04T08:00:00Z,28.9818,-94.9186,4.0,5.516493451,331.76241,7.48,'11111222,11111222,11111222' 
TABS,ioos:station:wmo:42043:1,2015-04-04T08:30:00Z,28.9818,-94.9186,4.0,9.464723979,31.96018029,12.96,'11111222,11111222,11111222' 
TABS,ioos:station:wmo:42043:1,2015-04-04T09:00:00Z,28.9818,-94.9186,4.0,9.528824691,35.47447578,12.37,'11111222,11111222,11111222' 
TABS,ioos:station:wmo:42043:1,2015-04-04T09:30:00Z,28.9818,-94.9186,4.0,10.28846441,44.80279283,13.21,'11111222,11111222,11111222' 
TABS,ioos:station:wmo:42043:1,2015-04-04T10:00:00Z,28.9818,-94.9186,4.0,10.30313059,49.28980791,13.21,'11111222,11111222,11111222' 
TABS,ioos:station:wmo:42043:1,2015-04-04T10:30:00Z,28.9818,-94.9186,4.0,10.11004451,52.9597514,13.1,'11111222,11111222,11111222' 
TABS,ioos:station:wmo:42043:1,2015-04-04T11:00:00Z,28.9818,-94.9186,4.0,10.23524304,59.40070815,13.71,'11111222,11111222,11111222' 
TABS,ioos:station:wmo:42043:1,2015-04-04T11:30:00Z,28.9818,-94.9186,4.0,10.33682737,65.41806208,12.46,'11111222,11111222,11111222' 
TABS,ioos:station:wmo:42043:1,2015-04-04T12:00:00Z,28.9818,-94.9186,4.0,10.56371147,65.86092018,13.49,'11111222,11111222,11111222' 
TABS,ioos:station:wmo:42043:1,2015-04-04T12:30:00Z,28.9818,-94.9186,4.0,10.76004182,68.92006401,13.7,'11111222,11111222,11111222' 
TABS,ioos:station:wmo:42043:1,2015-04-04T13:00:00Z,28.9818,-94.9186,4.0,11.32137801,74.31838197,13.98,'11111222,11111222,11111222' 
TABS,ioos:station:wmo:42043:1,2015-04-04T13:30:00Z,28.9818,-94.9186,4.0,10.36249005,73.97827188,13.65,'11111222,11111222,11111222' 
TABS,ioos:station:wmo:42043:1,2015-04-04T14:00:00Z,28.9818,-94.9186,4.0,10.57421865,81.57064461,13.71,'11111222,11111222,11111222' 
TABS,ioos:station:wmo:42043:1,2015-04-04T14:30:00Z,28.9818,-94.9186,4.0,9.638360856,79.59905138,12.84,'11111222,11111222,11111222' 
TABS,ioos:station:wmo:42043:1,2015-04-04T15:00:00Z,28.9818,-94.9186,4.0,9.814621745,80.49888997,12.62,'11111222,11111222,11111222' 
TABS,ioos:station:wmo:42043:1,2015-04-04T15:30:00Z,28.9818,-94.9186,4.0,9.654449751,79.73722151,12.81,'11111222,11111222,11111222' 
TABS,ioos:station:wmo:42043:1,2015-04-04T16:00:00Z,28.9818,-94.9186,4.0,9.905170367,88.14824319,13.0,'11111222,11111222,11111222' 
TABS,ioos:station:wmo:42043:1,2015-04-04T16:30:00Z,28.9818,-94.9186,4.0,10.44969856,85.00372554,13.9,'11111222,11111222,11111222' 
TABS,ioos:station:wmo:42043:1,2015-04-04T17:00:00Z,28.9818,-94.9186,4.0,9.503683496,81.52845426,11.8,'11111222,11111222,11111222' 
TABS,ioos:station:wmo:42043:1,2015-04-04T17:30:00Z,28.9818,-94.9186,4.0,9.506345249,81.83540134,11.83,'11111222,11111222,11111222' 
TABS,ioos:station:wmo:42043:1,2015-04-04T18:00:00Z,28.9818,-94.9186,4.0,8.410166467,72.70655647,10.86,'11111222,11111222,11111222' 
TABS,ioos:station:wmo:42043:1,2015-04-04T18:30:00Z,28.9818,-94.9186,4.0,7.826940654,76.47825192,9.82,'11111222,11111222,11111222' 